Weather History for Mammoth, CA

Change the Weather History Date:

Friday, September 27, 2013

  Actual Average Record
Temperature  
Mean Temperature 42 °F -  
Max Temperature 60 °F 64 °F 82 °F (2003)
Min Temperature 24 °F 47 °F 24 °F (2013)
Degree Days  
Heating Degree Days 23    
Moisture  
Dew Point 17 °F    
Average Humidity 45    
Maximum Humidity 86    
Minimum Humidity 12    
Precipitation  
Precipitation 0.00 in - - ()
Sea Level Pressure  
Sea Level Pressure 30.18 in    
Wind  
Wind Speed 5 mph (West)    
Max Wind Speed 12 mph    
Max Gust Speed 16 mph    
Visibility 10 miles    
Events      
Averages and records for this station are not official NWS values.
T = Trace of Precipitation, MM = Missing Value Source: NWS Daily Summary

Daily Weather History Graph

Daily Weather History Graph

Search for Another Location

Airport:

Trip Planner

Search our weather history database for the weather conditions in past years. The results will help you decide how hot, cold, wet, or windy it might be!

Date:

Astronomy

Sep. 27, 2013 Rise Set
Actual Time 6:47 AM PDT 6:44 PM PDT
Civil Twilight 6:21 AM PDT 7:10 PM PDT
Nautical Twilight 5:51 AM PDT 7:40 PM PDT
Astronomical Twilight 5:20 AM PDT 8:11 PM PDT
Moon No Moon Rise 2:19 PM PDT (9/27)
Length of Visible Light 12h 48m
Length of Day
11h 56m
Last Quarter, 44% of the Moon is Illuminated
Sep 27
Last Quarter
Oct 4
New
Oct 11
First Quarter
Oct 18
Full
Oct 26
Last Quarter

Hourly Weather History & Observations

Time (PDT) Temp. Windchill Dew Point Humidity Pressure Visibility Wind Dir Wind Speed Gust Speed Precip Events Conditions
12:15 AM 33.8 °F 27.7 °F 23.0 °F 65% 30.12 in 10.0 mi NW 6.9 mph - N/A   Mostly Cloudy
12:35 AM 33.8 °F 27.7 °F 23.0 °F 65% 30.12 in 10.0 mi NW 6.9 mph - N/A   Mostly Cloudy
12:55 AM 33.8 °F 29.6 °F 23.0 °F 65% 30.12 in 10.0 mi West 4.6 mph - N/A   Scattered Clouds
1:15 AM 30.2 °F 24.3 °F 21.2 °F 69% 30.12 in 10.0 mi WNW 5.8 mph - N/A   Scattered Clouds
1:35 AM 28.4 °F - 21.2 °F 74% 30.12 in 10.0 mi Calm Calm - N/A   Scattered Clouds
1:55 AM 28.4 °F - 21.2 °F 74% 30.13 in 10.0 mi Calm Calm - N/A   Clear
2:15 AM 26.6 °F 22.6 °F 21.2 °F 80% 30.13 in 10.0 mi WNW 3.5 mph - N/A   Clear
2:35 AM 26.6 °F - 21.2 °F 80% 30.13 in 10.0 mi Calm Calm - N/A   Scattered Clouds
2:55 AM 26.6 °F 21.2 °F 21.2 °F 80% 30.13 in 10.0 mi West 4.6 mph - N/A   Clear
3:15 AM 26.6 °F 19.1 °F 21.2 °F 80% 30.14 in 10.0 mi WNW 6.9 mph - N/A   Clear
3:35 AM 28.4 °F 19.7 °F 21.2 °F 74% 30.13 in 10.0 mi West 9.2 mph - N/A   Clear
3:55 AM 26.6 °F 19.1 °F 21.2 °F 80% 30.13 in 10.0 mi WNW 6.9 mph - N/A   Clear
4:15 AM 26.6 °F 19.1 °F 21.2 °F 80% 30.14 in 10.0 mi West 6.9 mph - N/A   Clear
4:35 AM 26.6 °F 19.1 °F 21.2 °F 80% 30.14 in 10.0 mi West 6.9 mph - N/A   Clear
4:55 AM 26.6 °F 19.1 °F 21.2 °F 80% 30.15 in 10.0 mi West 6.9 mph - N/A   Clear
5:15 AM 26.6 °F 20.0 °F 21.2 °F 80% 30.15 in 10.0 mi West 5.8 mph - N/A   Clear
5:35 AM 26.6 °F 17.5 °F 21.2 °F 80% 30.15 in 10.0 mi West 9.2 mph - N/A   Clear
5:55 AM 26.6 °F 20.0 °F 21.2 °F 80% 30.15 in 10.0 mi WNW 5.8 mph - N/A   Clear
6:15 AM 26.6 °F 17.5 °F 21.2 °F 80% 30.16 in 10.0 mi West 9.2 mph - N/A   Clear
6:35 AM 24.8 °F 16.9 °F 21.2 °F 86% 30.17 in 10.0 mi WNW 6.9 mph - N/A   Clear
6:55 AM 24.8 °F 16.1 °F 21.2 °F 86% 30.17 in 10.0 mi West 8.1 mph - N/A   Clear
7:15 AM 26.6 °F 17.5 °F 21.2 °F 80% 30.18 in 10.0 mi West 9.2 mph - N/A   Clear
7:35 AM 28.4 °F 19.1 °F 21.2 °F 74% 30.19 in 10.0 mi West 10.4 mph - N/A   Clear
7:55 AM 30.2 °F 22.6 °F 23.0 °F 75% 30.20 in 10.0 mi West 8.1 mph - N/A   Clear
8:15 AM 33.8 °F 27.7 °F 23.0 °F 65% 30.20 in 10.0 mi WNW 6.9 mph - N/A   Clear
8:35 AM 37.4 °F 32.1 °F 23.0 °F 56% 30.20 in 10.0 mi WNW 6.9 mph - N/A   Clear
8:55 AM 39.2 °F 35.0 °F 21.2 °F 49% 30.20 in 10.0 mi WNW 5.8 mph - N/A   Clear
9:15 AM 41.0 °F 38.0 °F 21.2 °F 45% 30.20 in 10.0 mi West 4.6 mph - N/A   Clear
9:35 AM 41.0 °F 39.0 °F 17.6 °F 39% 30.20 in 10.0 mi West 3.5 mph - N/A   Clear
9:55 AM 44.6 °F - 17.6 °F 34% 30.20 in 10.0 mi Calm Calm - N/A   Clear
10:15 AM 44.6 °F - 17.6 °F 34% 30.20 in 10.0 mi Calm Calm - N/A   Clear
10:35 AM 46.4 °F 44.3 °F 17.6 °F 32% 30.20 in 10.0 mi West 4.6 mph - N/A   Clear
10:55 AM 48.2 °F - 15.8 °F 27% 30.20 in 10.0 mi Calm Calm - N/A   Clear
11:15 AM 48.2 °F - 14.0 °F 25% 30.20 in 10.0 mi Calm Calm - N/A   Clear
11:35 AM 50.0 °F - 12.2 °F 22% 30.19 in 10.0 mi SSE 3.5 mph - N/A   Clear
11:55 AM 51.8 °F - 12.2 °F 21% 30.19 in 10.0 mi NNE 4.6 mph - N/A   Clear
12:15 PM 53.6 °F - 12.2 °F 19% 30.19 in 10.0 mi Calm Calm - N/A   Clear
12:35 PM 53.6 °F - 14.0 °F 21% 30.18 in 10.0 mi Calm Calm - N/A   Clear
12:55 PM 55.4 °F - 12.2 °F 18% 30.18 in 10.0 mi SSW 6.9 mph - N/A   Clear
1:15 PM 57.2 °F - 10.4 °F 16% 30.18 in 10.0 mi Calm Calm - N/A   Clear
1:35 PM 57.2 °F - 10.4 °F 16% 30.18 in 10.0 mi East 5.8 mph - N/A   Clear
1:55 PM 57.2 °F - 8.6 °F 14% 30.17 in 10.0 mi Calm Calm - N/A   Clear
2:15 PM 59.0 °F - 6.8 °F 13% 30.17 in 10.0 mi SE 3.5 mph - N/A   Clear
2:35 PM 60.8 °F - 6.8 °F 12% 30.16 in 10.0 mi South 8.1 mph - N/A   Clear
2:55 PM 60.8 °F - 6.8 °F 12% 30.16 in 10.0 mi SSE 8.1 mph - N/A   Clear
3:15 PM 60.8 °F - 8.6 °F 13% 30.16 in 10.0 mi ESE 5.8 mph - N/A   Clear
3:35 PM 60.8 °F - 8.6 °F 13% 30.16 in 10.0 mi East 8.1 mph - N/A   Clear
3:55 PM 60.8 °F - 10.4 °F 14% 30.16 in 10.0 mi SE 6.9 mph - N/A   Clear
4:15 PM 60.8 °F - 10.4 °F 14% 30.16 in 10.0 mi ESE 9.2 mph - N/A   Clear
4:35 PM 60.8 °F - 10.4 °F 14% 30.16 in 10.0 mi East 8.1 mph - N/A   Clear
4:55 PM 60.8 °F - 14.0 °F 16% 30.16 in 10.0 mi SE 9.2 mph - N/A   Clear
5:15 PM 59.0 °F - 15.8 °F 19% 30.17 in 10.0 mi SE 11.5 mph 16.1 mph N/A   Clear
5:35 PM 59.0 °F - 15.8 °F 19% 30.17 in 10.0 mi SE 9.2 mph - N/A   Clear
5:55 PM 57.2 °F - 15.8 °F 20% 30.17 in 10.0 mi ESE 10.4 mph - N/A   Clear
6:15 PM 53.6 °F - 15.8 °F 22% 30.18 in 10.0 mi ESE 8.1 mph - N/A   Clear
6:35 PM 51.8 °F - 15.8 °F 24% 30.19 in 10.0 mi ESE 5.8 mph - N/A   Clear
6:55 PM 50.0 °F - 14.0 °F 24% 30.20 in 10.0 mi ESE 5.8 mph - N/A   Clear
7:15 PM 48.2 °F - 14.0 °F 25% 30.20 in 10.0 mi ESE 5.8 mph - N/A   Clear
7:35 PM 48.2 °F - 14.0 °F 25% 30.21 in 10.0 mi ESE 6.9 mph - N/A   Clear
7:55 PM 48.2 °F - 14.0 °F 25% 30.22 in 10.0 mi East 6.9 mph - N/A   Clear
8:15 PM 48.2 °F - 14.0 °F 25% 30.22 in 10.0 mi ESE 10.4 mph - N/A   Clear
8:35 PM 48.2 °F - 14.0 °F 25% 30.23 in 10.0 mi ESE 5.8 mph - N/A   Clear
8:55 PM 44.6 °F - 14.0 °F 29% 30.24 in 10.0 mi Calm Calm - N/A   Clear
9:15 PM 39.2 °F 35.0 °F 14.0 °F 36% 30.25 in 10.0 mi NNW 5.8 mph - N/A   Clear
9:35 PM 37.4 °F - 14.0 °F 38% 30.25 in 10.0 mi Calm Calm - N/A   Clear
9:55 PM 35.6 °F 31.7 °F 15.8 °F 44% 30.26 in 10.0 mi North 4.6 mph - N/A   Clear
10:15 PM 35.6 °F 32.8 °F 15.8 °F 44% 30.26 in 10.0 mi NNW 3.5 mph - N/A   Clear
10:35 PM 35.6 °F 32.8 °F 17.6 °F 48% 30.27 in 10.0 mi WNW 3.5 mph - N/A   Clear
10:55 PM 35.6 °F - 17.6 °F 48% 30.27 in 10.0 mi Calm Calm - N/A   Clear
11:15 PM 33.8 °F - 17.6 °F 52% 30.27 in 10.0 mi Calm Calm - N/A   Clear
11:35 PM 33.8 °F - 17.6 °F 52% 30.27 in 10.0 mi Calm Calm - N/A   Clear
11:55 PM 32.0 °F 28.7 °F 15.8 °F 51% 30.26 in 10.0 mi North 3.5 mph - N/A   Clear